﻿_id,日時,平均風速(m/s),平均風向,最大瞬間風速(m/s),最大風速時風向,気温(℃),湿度(%),10分間移動積算雨量(mm),1時間移動積算雨量(mm),日雨量(mm),累計雨量(mm)
1,2022-02-07T00:00:00,1.2,南東,2.1,南東,-1.2,94.6,0,0.5,2.5,2.5
2,2022-02-07T00:01:00,1.3,南東,2.1,南東,-1.2,94.7,0,0.5,0,2.5
3,2022-02-07T00:02:00,1.3,南東,2.1,南東,-1.2,94.7,0,0.5,0,2.5
4,2022-02-07T00:03:00,1.3,南東,2.1,南東,-1.2,94.8,0,0.5,0,2.5
5,2022-02-07T00:04:00,1.4,南東,2.1,南東,-1.2,94.6,0,0.5,0,2.5
6,2022-02-07T00:05:00,1.3,南南東,2.1,南東,-1.2,94.6,0,0.5,0,2.5
7,2022-02-07T00:06:00,1.3,南南東,2.1,南東,-1.2,94.6,0,0.5,0,2.5
8,2022-02-07T00:07:00,1.2,南南東,2.1,南東,-1.2,94.7,0,0.5,0,2.5
9,2022-02-07T00:08:00,1.2,南南東,2.1,南東,-1.2,94.7,0,0.5,0,2.5
10,2022-02-07T00:09:00,1.2,南南東,2,南東,-1.2,94.6,0,0.5,0,2.5
11,2022-02-07T00:10:00,1.1,南南東,2,南東,-1.2,94.6,0,0.5,0,2.5
12,2022-02-07T00:11:00,1.1,南南東,2,南東,-1.2,94.7,0,0.5,0,2.5
13,2022-02-07T00:12:00,1.2,南南東,2,南東,-1.2,94.6,0,0.5,0,2.5
14,2022-02-07T00:13:00,1.2,南南東,2,南東,-1.2,94.7,0,0.5,0,2.5
15,2022-02-07T00:14:00,1.1,南南東,1.6,南南東,-1.1,94.7,0,0.5,0,2.5
16,2022-02-07T00:15:00,1.2,南南東,1.6,南南東,-1.2,94.7,0,0.5,0,2.5
17,2022-02-07T00:16:00,1.2,南南東,1.6,南南東,-1.2,94.6,0,0.5,0,2.5
18,2022-02-07T00:17:00,1.1,南南東,1.6,南南東,-1.2,94.6,0,0.5,0,2.5
19,2022-02-07T00:18:00,1.1,南南東,1.6,南南東,-1.2,94.6,0,0.5,0,2.5
20,2022-02-07T00:19:00,1.1,南南東,1.6,南南東,-1.1,94.6,0,0.5,0,2.5
21,2022-02-07T00:20:00,1.1,南南東,1.7,南東,-1.2,94.6,0,0.5,0,2.5
22,2022-02-07T00:21:00,1.1,南東,1.7,南東,-1.2,94.5,0,0.5,0,2.5
23,2022-02-07T00:22:00,1.1,南東,1.7,南東,-1.2,94.6,0,0.5,0,2.5
24,2022-02-07T00:23:00,1.1,南東,1.7,南東,-1.2,94.5,0,0.5,0,2.5
25,2022-02-07T00:24:00,1.1,南南東,1.7,南東,-1.2,94.5,0,0.5,0,2.5
26,2022-02-07T00:25:00,1.1,南南東,1.7,南東,-1.1,94.6,0,0.5,0,2.5
27,2022-02-07T00:26:00,1.1,南南東,1.7,南東,-1.1,94.7,0,0.5,0,2.5
28,2022-02-07T00:27:00,1.1,南南東,1.7,南東,-1.2,94.7,0,0.5,0,2.5
29,2022-02-07T00:28:00,1.1,南南東,1.7,南東,-1.1,94.6,0,0.5,0,2.5
30,2022-02-07T00:29:00,1.1,南南東,1.7,南東,-1.2,94.5,0,0.5,0,2.5
31,2022-02-07T00:30:00,1,南南東,1.6,南南東,-1.2,94.4,0,0.5,0,2.5
32,2022-02-07T00:31:00,1,南南東,1.6,南南東,-1.3,94.4,0,0.5,0,2.5
33,2022-02-07T00:32:00,0.9,南南東,1.6,南南東,-1.2,94.4,0,0.5,0,2.5
34,2022-02-07T00:33:00,0.9,南南東,1.6,南南東,-1.2,94.5,0,0,0,2.5
35,2022-02-07T00:34:00,0.9,南南東,1.5,南南東,-1.3,94.4,0,0,0,2.5
36,2022-02-07T00:35:00,0.9,南南東,1.5,南南東,-1.3,94.4,0,0,0,2.5
37,2022-02-07T00:36:00,0.9,南南東,1.5,南南東,-1.3,94.4,0,0,0,2.5
38,2022-02-07T00:37:00,0.9,南南東,1.5,南南東,-1.3,94.4,0,0,0,2.5
39,2022-02-07T00:38:00,1,南南東,1.5,南南東,-1.2,94.5,0,0,0,2.5
40,2022-02-07T00:39:00,1,南南東,1.5,南南東,-1.3,94.5,0,0,0,2.5
41,2022-02-07T00:40:00,1,南南東,1.5,南南東,-1.2,94.6,0,0,0,2.5
42,2022-02-07T00:41:00,1,南南東,1.5,南南東,-1.2,94.7,0,0,0,2.5
43,2022-02-07T00:42:00,1.1,南南東,1.5,南南東,-1.2,94.6,0,0,0,2.5
44,2022-02-07T00:43:00,1.1,南南東,1.8,南南東,-1.3,94.5,0,0,0,2.5
45,2022-02-07T00:44:00,1.2,南南東,1.8,南南東,-1.2,94.5,0,0,0,2.5
46,2022-02-07T00:45:00,1.2,南南東,1.8,南南東,-1.2,94.6,0,0,0,2.5
47,2022-02-07T00:46:00,1.2,南南東,1.8,南南東,-1.2,94.6,0,0,0,2.5
48,2022-02-07T00:47:00,1.3,南南東,2,南南東,-1.2,94.6,0,0,0,2.5
49,2022-02-07T00:48:00,1.3,南南東,2,南南東,-1.2,94.6,0,0,0,2.5
50,2022-02-07T00:49:00,1.3,南南東,2,南南東,-1.2,94.6,0,0,0,2.5
51,2022-02-07T00:50:00,1.4,南南東,2,南南東,-1.2,94.6,0,0,0,2.5
52,2022-02-07T00:51:00,1.5,南南東,2.2,南南東,-1.2,94.6,0,0,0,2.5
53,2022-02-07T00:52:00,1.6,南南東,2.5,南南東,-1.2,94.6,0,0,0,2.5
54,2022-02-07T00:53:00,1.6,南南東,2.5,南南東,-1.2,94.5,0,0,0,2.5
55,2022-02-07T00:54:00,1.6,南南東,2.5,南南東,-1.2,94.6,0,0,0,2.5
56,2022-02-07T00:55:00,1.7,南南東,2.5,南南東,-1.2,94.6,0,0,0,2.5
57,2022-02-07T00:56:00,1.8,南南東,3.3,南東,-1.2,94.5,0,0,0,2.5
58,2022-02-07T00:57:00,1.9,南南東,3.3,南東,-1.2,94.4,0.5,0.5,0.5,3
59,2022-02-07T00:58:00,2,南南東,3.3,南東,-1.3,94.3,0.5,0.5,0.5,3
60,2022-02-07T00:59:00,2,南南東,3.3,南東,-1.3,94.3,0.5,0.5,0.5,3
61,2022-02-07T01:00:00,2,南東,3.3,南東,-1.3,94.3,0.5,0.5,0.5,3
62,2022-02-07T01:01:00,1.9,南東,3.3,南東,-1.3,94.3,0.5,0.5,0.5,3
63,2022-02-07T01:02:00,1.8,南東,3.3,南東,-1.2,94.4,0.5,0.5,0.5,3
64,2022-02-07T01:03:00,1.7,南東,3.3,南東,-1.2,94.5,0.5,0.5,0.5,3
65,2022-02-07T01:04:00,1.7,南東,3.3,南東,-1.2,94.5,0.5,0.5,0.5,3
66,2022-02-07T01:05:00,1.6,南東,3.3,南東,-1.3,94.3,0.5,0.5,0.5,3
67,2022-02-07T01:06:00,1.5,南東,3,南東,-1.3,94.2,0.5,0.5,0.5,3
68,2022-02-07T01:07:00,1.5,南東,3,南東,-1.3,94.2,0,0.5,0.5,3
69,2022-02-07T01:08:00,1.3,南東,2.5,南南東,-1.3,94.2,0,0.5,0.5,3
70,2022-02-07T01:09:00,1.3,南東,2.4,南南東,-1.3,94.3,0,0.5,0.5,3
71,2022-02-07T01:10:00,1.4,南東,2.5,南東,-1.3,94.2,0,0.5,0.5,3
72,2022-02-07T01:11:00,1.5,南東,2.6,南南東,-1.3,94.3,0,0.5,0.5,3
73,2022-02-07T01:12:00,1.6,南南東,2.6,南南東,-1.3,94.2,0,0.5,0.5,3
74,2022-02-07T01:13:00,1.7,南南東,2.8,南東,-1.3,94.2,0,0.5,0.5,3
75,2022-02-07T01:14:00,1.8,南東,2.9,南南東,-1.3,94.2,0,0.5,0.5,3
76,2022-02-07T01:15:00,1.9,南東,3.2,南東,-1.3,94.2,0,0.5,0.5,3
77,2022-02-07T01:16:00,2,南東,3.4,南東,-1.3,94.2,0,0.5,0.5,3
78,2022-02-07T01:17:00,2.1,南東,3.4,南東,-1.3,94.2,0,0.5,0.5,3
79,2022-02-07T01:18:00,2.2,南東,3.5,南南東,-1.3,94.2,0,0.5,0.5,3
80,2022-02-07T01:19:00,2.2,南南東,3.5,南南東,-1.3,94.2,0,0.5,0.5,3
81,2022-02-07T01:20:00,2.1,南東,3.5,南南東,-1.3,94.3,0,0.5,0.5,3
82,2022-02-07T01:21:00,2.1,南東,3.5,南南東,-1.3,94.3,0,0.5,0.5,3
83,2022-02-07T01:22:00,2.1,南東,3.5,南南東,-1.3,94.2,0,0.5,0.5,3
84,2022-02-07T01:23:00,2.1,南南東,3.5,南南東,-1.3,94.2,0,0.5,0.5,3
85,2022-02-07T01:24:00,2,南南東,3.5,南南東,-1.3,94.3,0,0.5,0.5,3
86,2022-02-07T01:25:00,1.9,南南東,3.5,南南東,-1.3,94.2,0,0.5,0.5,3
87,2022-02-07T01:26:00,1.8,南南東,3.5,南南東,-1.3,94.2,0,0.5,0.5,3
88,2022-02-07T01:27:00,1.7,南南東,3.5,南南東,-1.3,94.1,0,0.5,0.5,3
89,2022-02-07T01:28:00,1.7,南南東,2.7,南東,-1.4,94.2,0,0.5,0.5,3
90,2022-02-07T01:29:00,1.7,南東,2.8,南東,-1.4,94.1,0,0.5,0.5,3
91,2022-02-07T01:30:00,1.8,南東,2.9,南東,-1.3,94.1,0,0.5,0.5,3
92,2022-02-07T01:31:00,1.8,南東,2.9,南東,-1.4,94.1,0,0.5,0.5,3
93,2022-02-07T01:32:00,1.9,南東,3.1,南東,-1.4,94.2,0,0.5,0.5,3
94,2022-02-07T01:33:00,2,南東,3.2,南東,-1.4,94.2,0,0.5,0.5,3
95,2022-02-07T01:34:00,2,南東,3.2,南東,-1.4,94.1,0,0.5,0.5,3
96,2022-02-07T01:35:00,2.1,南東,3.2,南東,-1.4,94.1,0,0.5,0.5,3
97,2022-02-07T01:36:00,2.1,南東,3.2,南東,-1.4,94.1,0,0.5,0.5,3
98,2022-02-07T01:37:00,2.1,南東,3.2,南東,-1.4,94.1,0,0.5,0.5,3
99,2022-02-07T01:38:00,2.1,南東,3.2,南東,-1.4,94.1,0,0.5,0.5,3
100,2022-02-07T01:39:00,2,南東,3.2,南東,-1.4,94.1,0,0.5,0.5,3
101,2022-02-07T01:40:00,2,南南東,3.2,南東,-1.4,94.1,0,0.5,0.5,3
102,2022-02-07T01:41:00,1.9,南南東,3.2,南東,-1.4,94.1,0,0.5,0.5,3
103,2022-02-07T01:42:00,1.9,南南東,3.2,南東,-1.4,94.1,0,0.5,0.5,3
104,2022-02-07T01:43:00,1.8,南南東,2.9,南東,-1.4,94,0,0.5,0.5,3
105,2022-02-07T01:44:00,1.7,南南東,2.9,南東,-1.4,94,0,0.5,0.5,3
106,2022-02-07T01:45:00,1.6,南南東,2.7,南東,-1.4,94.1,0,0.5,0.5,3
107,2022-02-07T01:46:00,1.5,南南東,2.5,南南東,-1.4,94.1,0,0.5,0.5,3
108,2022-02-07T01:47:00,1.5,南南東,2.5,南南東,-1.4,94,0,0.5,0.5,3
109,2022-02-07T01:48:00,1.4,南東,2.5,南南東,-1.3,94.1,0,0.5,0.5,3
110,2022-02-07T01:49:00,1.4,南東,2.5,南南東,-1.4,94.1,0,0.5,0.5,3
111,2022-02-07T01:50:00,1.4,南東,2.5,南南東,-1.4,94,0,0.5,0.5,3
112,2022-02-07T01:51:00,1.4,南東,2.5,南南東,-1.4,94,0,0.5,0.5,3
113,2022-02-07T01:52:00,1.4,南東,2.3,南南東,-1.4,93.9,0,0.5,0.5,3
114,2022-02-07T01:53:00,1.4,南東,2.3,南南東,-1.4,93.9,0,0.5,0.5,3
115,2022-02-07T01:54:00,1.5,南東,2.3,南南東,-1.4,93.8,0,0.5,0.5,3
116,2022-02-07T01:55:00,1.5,南東,2.3,南南東,-1.4,93.7,0,0.5,0.5,3
117,2022-02-07T01:56:00,1.6,南東,2.3,南南東,-1.4,93.7,0,0.5,0.5,3
118,2022-02-07T01:57:00,1.6,南東,2.3,南南東,-1.4,93.7,0,0,0.5,3
119,2022-02-07T01:58:00,1.6,南東,2.3,南南東,-1.4,93.6,0,0,0.5,3
120,2022-02-07T01:59:00,1.6,南東,2.3,南南東,-1.4,93.6,0,0,0.5,3
121,2022-02-07T02:00:00,1.4,南東,2.3,南南東,-1.4,93.6,0,0,0.5,3
122,2022-02-07T02:01:00,1.3,南東,2.3,南南東,-1.4,93.6,0,0,0.5,3
123,2022-02-07T02:02:00,1.2,南東,2.2,南東,-1.3,93.6,0,0,0.5,3
124,2022-02-07T02:03:00,1,南南東,2.1,南南東,-1.3,93.7,0,0,0.5,3
125,2022-02-07T02:04:00,0.8,南東,2.1,南南東,-1.3,93.6,0,0,0.5,3
126,2022-02-07T02:05:00,0.6,南東,2.1,南南東,-1.3,93.6,0,0,0.5,3
127,2022-02-07T02:06:00,0.4,南東,2,南東,-1.4,93.4,0,0,0.5,3
128,2022-02-07T02:07:00,0.3,南東,1.3,南南東,-1.4,93.1,0,0,0.5,3
129,2022-02-07T02:08:00,0.2,静穏,1.3,南南東,-1.4,93.2,0,0,0.5,3
130,2022-02-07T02:09:00,0.1,静穏,1.2,南南東,-1.3,93.3,0,0,0.5,3
131,2022-02-07T02:10:00,0.1,静穏,0.9,南東,-1.4,93.2,0,0,0.5,3
132,2022-02-07T02:11:00,0.1,静穏,0.9,南南東,-1.4,93.1,0,0,0.5,3
133,2022-02-07T02:12:00,0.2,静穏,1.2,南,-1.4,93.1,0,0,0.5,3
134,2022-02-07T02:13:00,0.3,南東,1.4,南,-1.4,93,0,0,0.5,3
135,2022-02-07T02:14:00,0.5,南南東,1.8,南,-1.4,93,0,0,0.5,3
136,2022-02-07T02:15:00,0.6,南南東,1.9,南,-1.4,93,0,0,0.5,3
137,2022-02-07T02:16:00,0.8,南南東,1.9,南,-1.4,93,0,0,0.5,3
138,2022-02-07T02:17:00,0.9,南南東,1.9,南,-1.4,93.1,0,0,0.5,3
139,2022-02-07T02:18:00,1,南南東,1.9,南,-1.4,93.1,0,0,0.5,3
140,2022-02-07T02:19:00,1.1,南南東,1.9,南,-1.4,93,0,0,0.5,3
141,2022-02-07T02:20:00,1.1,南南東,1.9,南,-1.4,92.9,0,0,0.5,3
142,2022-02-07T02:21:00,1.1,南南東,1.9,南,-1.4,92.9,0,0,0.5,3
143,2022-02-07T02:22:00,1.1,南南東,1.9,南,-1.4,92.9,0,0,0.5,3
144,2022-02-07T02:23:00,1,南南東,1.9,南,-1.5,92.8,0,0,0.5,3
145,2022-02-07T02:24:00,0.9,南東,1.9,南,-1.5,92.7,0,0,0.5,3
146,2022-02-07T02:25:00,0.9,南東,1.7,南東,-1.5,92.6,0,0,0.5,3
147,2022-02-07T02:26:00,0.9,南東,1.7,南東,-1.5,92.7,0,0,0.5,3
148,2022-02-07T02:27:00,0.8,南東,1.6,南東,-1.5,92.7,0,0,0.5,3
149,2022-02-07T02:28:00,0.7,南東,1.6,南東,-1.5,92.6,0,0,0.5,3
150,2022-02-07T02:29:00,0.7,南東,1.6,南東,-1.6,92.6,0,0,0.5,3
151,2022-02-07T02:30:00,0.7,南東,1.6,南東,-1.6,92.6,0,0,0.5,3
152,2022-02-07T02:31:00,0.7,南東,1.6,南東,-1.6,92.5,0,0,0.5,3
153,2022-02-07T02:32:00,0.8,南東,1.6,南東,-1.6,92.4,0,0,0.5,3
154,2022-02-07T02:33:00,0.9,南東,1.6,南東,-1.6,92.5,0,0,0.5,3
155,2022-02-07T02:34:00,0.9,南東,1.6,南東,-1.6,92.5,0,0,0.5,3
156,2022-02-07T02:35:00,0.9,南東,1.6,南東,-1.6,92.5,0,0,0.5,3
157,2022-02-07T02:36:00,0.8,南南東,1.6,南東,-1.6,92.5,0,0,0.5,3
158,2022-02-07T02:37:00,0.8,南南東,1.6,南東,-1.6,92.6,0,0,0.5,3
159,2022-02-07T02:38:00,0.9,南南東,1.6,南東,-1.6,92.7,0,0,0.5,3
160,2022-02-07T02:39:00,0.9,南南東,1.6,南東,-1.6,92.6,0,0,0.5,3
161,2022-02-07T02:40:00,0.9,南南東,1.6,南東,-1.6,92.6,0,0,0.5,3
162,2022-02-07T02:41:00,0.9,南南東,1.6,南東,-1.6,92.6,0,0,0.5,3
163,2022-02-07T02:42:00,0.9,南南東,1.6,南東,-1.6,92.7,0,0,0.5,3
164,2022-02-07T02:43:00,0.9,南南東,1.6,南東,-1.6,92.8,0,0,0.5,3
165,2022-02-07T02:44:00,0.9,南南東,1.6,南東,-1.6,92.7,0,0,0.5,3
166,2022-02-07T02:45:00,0.9,南南東,1.6,南東,-1.6,92.7,0,0,0.5,3
167,2022-02-07T02:46:00,0.9,南東,1.6,南東,-1.6,92.6,0,0,0.5,3
168,2022-02-07T02:47:00,1,南東,1.6,南東,-1.6,92.6,0,0,0.5,3
169,2022-02-07T02:48:00,1,南東,1.8,南東,-1.6,92.5,0,0,0.5,3
170,2022-02-07T02:49:00,1.1,南東,1.8,南東,-1.6,92.5,0,0,0.5,3
171,2022-02-07T02:50:00,1.1,南東,1.8,南東,-1.6,92.5,0,0,0.5,3
172,2022-02-07T02:51:00,1.1,南東,1.8,南東,-1.6,92.5,0,0,0.5,3
173,2022-02-07T02:52:00,1.2,南東,1.8,南東,-1.7,92.5,0,0,0.5,3
174,2022-02-07T02:53:00,1.2,南東,1.8,南東,-1.6,92.6,0,0,0.5,3
175,2022-02-07T02:54:00,1.2,南東,1.8,南東,-1.7,92.6,0,0,0.5,3
176,2022-02-07T02:55:00,1.1,南東,1.8,南東,-1.6,92.7,0,0,0.5,3
177,2022-02-07T02:56:00,1,南東,1.8,南東,-1.6,92.7,0,0,0.5,3
178,2022-02-07T02:57:00,0.9,南東,1.8,南東,-1.6,92.8,0,0,0.5,3
179,2022-02-07T02:58:00,0.8,南東,1.7,南東,-1.6,92.8,0,0,0.5,3
180,2022-02-07T02:59:00,0.7,南東,1.7,南東,-1.6,92.8,0,0,0.5,3
181,2022-02-07T03:00:00,0.6,南東,1.7,南東,-1.7,92.7,0,0,0.5,3
182,2022-02-07T03:01:00,0.5,南東,1.7,南東,-1.7,92.7,0,0,0.5,3
183,2022-02-07T03:02:00,0.4,南東,1.5,南東,-1.6,92.8,0,0,0.5,3
184,2022-02-07T03:03:00,0.3,南東,1.5,南東,-1.7,92.8,0,0,0.5,3
185,2022-02-07T03:04:00,0.2,静穏,1.1,南南東,-1.6,92.9,0,0,0.5,3
186,2022-02-07T03:05:00,0.2,静穏,1.1,南南東,-1.6,92.9,0,0,0.5,3
187,2022-02-07T03:06:00,0.2,静穏,1.1,南南東,-1.6,93.1,0,0,0.5,3
188,2022-02-07T03:07:00,0.2,静穏,1.1,南南東,-1.6,93.1,0,0,0.5,3
189,2022-02-07T03:08:00,0.2,静穏,1.1,南南東,-1.7,92.9,0,0,0.5,3
190,2022-02-07T03:09:00,0.2,静穏,1.1,南南東,-1.7,92.8,0,0,0.5,3
191,2022-02-07T03:10:00,0.2,静穏,0.9,南南東,-1.7,92.9,0,0,0.5,3
192,2022-02-07T03:11:00,0.1,静穏,0.9,南南東,-1.7,92.9,0,0,0.5,3
193,2022-02-07T03:12:00,0.1,静穏,0.9,南南東,-1.7,92.9,0,0,0.5,3
194,2022-02-07T03:13:00,0.1,静穏,0.9,南南東,-1.7,92.9,0,0,0.5,3
195,2022-02-07T03:14:00,0.1,静穏,0.7,南東,-1.7,92.9,0,0,0.5,3
196,2022-02-07T03:15:00,0.1,静穏,0.8,東,-1.8,92.8,0,0,0.5,3
197,2022-02-07T03:16:00,0.2,静穏,0.9,東,-1.8,92.7,0,0,0.5,3
198,2022-02-07T03:17:00,0.2,静穏,0.9,東,-1.8,92.8,0,0,0.5,3
199,2022-02-07T03:18:00,0.3,東,0.9,東,-1.8,93,0,0,0.5,3
200,2022-02-07T03:19:00,0.3,東,0.9,東,-1.8,92.9,0,0,0.5,3
201,2022-02-07T03:20:00,0.4,東,0.9,東,-1.8,92.9,0,0,0.5,3
202,2022-02-07T03:21:00,0.4,東,0.9,東,-1.8,92.8,0,0,0.5,3
203,2022-02-07T03:22:00,0.3,東,0.9,東,-1.7,92.9,0,0,0.5,3
204,2022-02-07T03:23:00,0.4,東,0.9,東,-1.8,93,0,0,0.5,3
205,2022-02-07T03:24:00,0.4,東,0.9,東,-1.8,92.9,0,0,0.5,3
206,2022-02-07T03:25:00,0.4,東,0.9,東,-1.8,93,0,0,0.5,3
207,2022-02-07T03:26:00,0.3,東,0.9,東南東,-1.8,93,0,0,0.5,3
208,2022-02-07T03:27:00,0.3,東,0.9,東南東,-1.8,93.1,0,0,0.5,3
209,2022-02-07T03:28:00,0.2,静穏,0.8,東,-1.8,93.1,0,0,0.5,3
210,2022-02-07T03:29:00,0.1,静穏,0.8,東,-1.8,93.1,0,0,0.5,3
211,2022-02-07T03:30:00,0.1,静穏,0.6,東,-1.6,93.1,0,0,0.5,3
212,2022-02-07T03:31:00,0.1,静穏,0.6,東,-1.7,93.3,0,0,0.5,3
213,2022-02-07T03:32:00,0.1,静穏,0.6,東,-1.8,93.1,0,0,0.5,3
214,2022-02-07T03:33:00,0,静穏,0.6,東,-1.7,93.1,0,0,0.5,3
215,2022-02-07T03:34:00,0,静穏,0.4,東,-1.7,93.2,0,0,0.5,3
216,2022-02-07T03:35:00,0,静穏,0.1,北東,-1.7,93.2,0,0,0.5,3
217,2022-02-07T03:36:00,0,静穏,0.1,北東,-1.7,93.2,0,0,0.5,3
218,2022-02-07T03:37:00,0,静穏,0.1,北東,-1.6,93.3,0,0,0.5,3
219,2022-02-07T03:38:00,0,静穏,0.1,北東,-1.6,93.4,0,0,0.5,3
220,2022-02-07T03:39:00,0,静穏,0.4,東,-1.7,93.2,0,0,0.5,3
221,2022-02-07T03:40:00,0,静穏,0.6,東北東,-1.7,93,0,0,0.5,3
222,2022-02-07T03:41:00,0,静穏,0.6,東北東,-1.7,93.1,0,0,0.5,3
223,2022-02-07T03:42:00,0,静穏,0.6,東北東,-1.7,93.1,0,0,0.5,3
224,2022-02-07T03:43:00,0,静穏,0.6,東北東,-1.6,93.2,0,0,0.5,3
225,2022-02-07T03:44:00,0,静穏,0.6,東北東,-1.6,93.1,0,0,0.5,3
226,2022-02-07T03:45:00,0.1,静穏,0.9,東南東,-1.6,93.1,0,0,0.5,3
227,2022-02-07T03:46:00,0.1,静穏,0.9,東南東,-1.6,93.1,0,0,0.5,3
228,2022-02-07T03:47:00,0.2,静穏,1.2,東南東,-1.7,92.9,0,0,0.5,3
229,2022-02-07T03:48:00,0.3,東南東,1.5,南南東,-1.7,92.7,0,0,0.5,3
230,2022-02-07T03:49:00,0.4,東南東,1.6,南南東,-1.7,92.7,0,0,0.5,3
231,2022-02-07T03:50:00,0.5,東南東,1.6,南南東,-1.8,92.7,0,0,0.5,3
232,2022-02-07T03:51:00,0.6,南東,1.6,南南東,-1.8,92.7,0,0,0.5,3
233,2022-02-07T03:52:00,0.7,南東,1.9,南東,-1.7,92.8,0,0,0.5,3
234,2022-02-07T03:53:00,0.8,南東,1.9,南東,-1.7,92.8,0,0,0.5,3
235,2022-02-07T03:54:00,0.9,南東,1.9,南東,-1.7,93.1,0,0,0.5,3
236,2022-02-07T03:55:00,1,南東,2.5,南南東,-1.7,93,0,0,0.5,3
237,2022-02-07T03:56:00,1.2,南南東,2.5,南南東,-1.7,92.9,0,0,0.5,3
238,2022-02-07T03:57:00,1.2,南南東,2.5,南南東,-1.7,92.9,0,0,0.5,3
239,2022-02-07T03:58:00,1.2,南東,2.5,南南東,-1.7,93,0,0,0.5,3
240,2022-02-07T03:59:00,1.2,南東,2.5,南南東,-1.7,92.9,0,0,0.5,3
241,2022-02-07T04:00:00,1.2,南東,2.5,南南東,-1.7,92.9,0,0,0.5,3
242,2022-02-07T04:01:00,1.2,南東,2.5,南南東,-1.7,92.8,0,0,0.5,3
243,2022-02-07T04:02:00,1.3,南東,2.5,南南東,-1.7,92.8,0,0,0.5,3
244,2022-02-07T04:03:00,1.3,南東,2.5,南南東,-1.8,92.8,0,0,0.5,3
245,2022-02-07T04:04:00,1.4,南東,2.5,南南東,-1.8,92.7,0,0,0.5,3
246,2022-02-07T04:05:00,1.3,南東,2.4,南東,-1.8,92.7,0,0,0.5,3
247,2022-02-07T04:06:00,1.4,南東,2.1,南東,-1.8,92.7,0,0,0.5,3
248,2022-02-07T04:07:00,1.4,南東,2.1,南東,-1.8,92.7,0,0,0.5,3
249,2022-02-07T04:08:00,1.4,南東,2.1,南東,-1.8,92.8,0,0,0.5,3
250,2022-02-07T04:09:00,1.4,南東,2.1,南東,-1.8,92.7,0,0,0.5,3
251,2022-02-07T04:10:00,1.3,南東,2.1,南東,-1.8,92.8,0,0,0.5,3
252,2022-02-07T04:11:00,1.3,南東,2.1,南東,-1.8,92.9,0,0,0.5,3
253,2022-02-07T04:12:00,1.3,南東,2,南東,-1.7,92.9,0,0,0.5,3
254,2022-02-07T04:13:00,1.2,南東,2,南東,-1.7,93.1,0,0,0.5,3
255,2022-02-07T04:14:00,1.2,東南東,2,南東,-1.7,93.2,0,0,0.5,3
256,2022-02-07T04:15:00,1,東南東,2,南東,-1.7,93.2,0,0,0.5,3
257,2022-02-07T04:16:00,0.9,東南東,1.7,東南東,-1.6,93.2,0,0,0.5,3
258,2022-02-07T04:17:00,0.8,東南東,1.7,東南東,-1.7,93.2,0,0,0.5,3
259,2022-02-07T04:18:00,0.8,東南東,1.7,東南東,-1.7,93.2,0,0,0.5,3
260,2022-02-07T04:19:00,0.8,東南東,1.6,東南東,-1.7,93,0,0,0.5,3
261,2022-02-07T04:20:00,0.8,南東,1.6,東南東,-1.7,93,0,0,0.5,3
262,2022-02-07T04:21:00,0.8,南東,1.6,東南東,-1.7,93.1,0,0,0.5,3
263,2022-02-07T04:22:00,0.7,南東,1.5,南南東,-1.7,93.1,0,0,0.5,3
264,2022-02-07T04:23:00,0.8,南東,1.5,南南東,-1.6,93.2,0,0,0.5,3
265,2022-02-07T04:24:00,0.8,南東,1.5,南南東,-1.7,93.2,0,0,0.5,3
266,2022-02-07T04:25:00,0.9,南南東,1.5,南南東,-1.7,93.1,0,0,0.5,3
267,2022-02-07T04:26:00,1,南南東,1.5,南南東,-1.7,93.1,0,0,0.5,3
268,2022-02-07T04:27:00,1.1,南南東,1.5,南南東,-1.7,93.1,0,0,0.5,3
269,2022-02-07T04:28:00,1,南南東,1.4,南南東,-1.7,93.2,0,0,0.5,3
270,2022-02-07T04:29:00,1,南南東,1.4,南南東,-1.7,93.3,0,0,0.5,3
271,2022-02-07T04:30:00,0.8,南南東,1.4,南南東,-1.7,93.3,0,0,0.5,3
272,2022-02-07T04:31:00,0.8,南南東,1.4,南南東,-1.6,93.3,0,0,0.5,3
273,2022-02-07T04:32:00,0.6,南,1.4,南南東,-1.6,93.3,0,0,0.5,3
274,2022-02-07T04:33:00,0.5,南,1.4,南南東,-1.6,93.3,0,0,0.5,3
275,2022-02-07T04:34:00,0.4,南,1.4,南南東,-1.6,93.3,0,0,0.5,3
276,2022-02-07T04:35:00,0.3,南,1.3,南,-1.6,93.4,0,0,0.5,3
277,2022-02-07T04:36:00,0.2,静穏,1.3,南,-1.6,93.3,0,0,0.5,3
278,2022-02-07T04:37:00,0.1,静穏,1.1,南,-1.6,93.2,0,0,0.5,3
279,2022-02-07T04:38:00,0,静穏,0.9,南,-1.6,93.2,0,0,0.5,3
280,2022-02-07T04:39:00,0,静穏,0.1,南,-1.6,93.2,0,0,0.5,3
281,2022-02-07T04:40:00,0,静穏,0,東南東,-1.5,93.4,0,0,0.5,3
282,2022-02-07T04:41:00,0,静穏,0,東南東,-1.5,93.5,0,0,0.5,3
283,2022-02-07T04:42:00,0,静穏,0,東南東,-1.5,93.6,0,0,0.5,3
284,2022-02-07T04:43:00,0,静穏,0,東南東,-1.6,93.4,0,0,0.5,3
285,2022-02-07T04:44:00,0,静穏,0,東南東,-1.6,93.3,0,0,0.5,3
286,2022-02-07T04:45:00,0,静穏,0,東南東,-1.6,93.3,0,0,0.5,3
287,2022-02-07T04:46:00,0,静穏,0,東南東,-1.6,93.3,0,0,0.5,3
288,2022-02-07T04:47:00,0,静穏,0,東南東,-1.7,93.2,0,0,0.5,3
289,2022-02-07T04:48:00,0,静穏,0,東南東,-1.7,93.2,0,0,0.5,3
290,2022-02-07T04:49:00,0,静穏,0,東南東,-1.7,93.2,0,0,0.5,3
291,2022-02-07T04:50:00,0.1,静穏,1.7,南東,-1.7,93.2,0,0,0.5,3
292,2022-02-07T04:51:00,0.2,静穏,1.7,南東,-1.7,93.2,0,0,0.5,3
293,2022-02-07T04:52:00,0.4,南東,1.8,東南東,-1.7,93.3,0,0,0.5,3
294,2022-02-07T04:53:00,0.5,南東,1.8,東南東,-1.7,93.3,0,0,0.5,3
295,2022-02-07T04:54:00,0.6,南東,1.8,東南東,-1.7,93.4,0,0,0.5,3
296,2022-02-07T04:55:00,0.6,南東,1.8,東南東,-1.6,93.6,0,0,0.5,3
297,2022-02-07T04:56:00,0.6,東南東,1.8,東南東,-1.6,93.7,0,0,0.5,3
298,2022-02-07T04:57:00,0.6,東南東,1.8,東南東,-1.7,93.7,0,0,0.5,3
299,2022-02-07T04:58:00,0.7,東南東,1.8,東南東,-1.7,93.6,0,0,0.5,3
300,2022-02-07T04:59:00,0.7,東南東,1.8,東南東,-1.7,93.5,0,0,0.5,3
301,2022-02-07T05:00:00,0.6,東南東,1.8,東南東,-1.7,93.6,0,0,0.5,3
302,2022-02-07T05:01:00,0.5,東南東,1.8,東南東,-1.7,93.7,0,0,0.5,3
303,2022-02-07T05:02:00,0.4,東南東,1.7,東,-1.6,93.8,0,0,0.5,3
304,2022-02-07T05:03:00,0.2,静穏,1.4,東南東,-1.7,93.8,0,0,0.5,3
305,2022-02-07T05:04:00,0.2,静穏,1.2,東南東,-1.7,93.8,0,0,0.5,3
306,2022-02-07T05:05:00,0.1,静穏,1.2,東南東,-1.7,93.7,0,0,0.5,3
307,2022-02-07T05:06:00,0.1,静穏,1.2,東南東,-1.7,93.8,0,0,0.5,3
308,2022-02-07T05:07:00,0.1,静穏,1.2,東南東,-1.7,93.8,0,0,0.5,3
309,2022-02-07T05:08:00,0.1,静穏,1.2,東南東,-1.7,93.7,0,0,0.5,3
310,2022-02-07T05:09:00,0.1,静穏,1.2,東南東,-1.7,93.7,0,0,0.5,3
311,2022-02-07T05:10:00,0.1,静穏,1.2,東南東,-1.8,93.8,0,0,0.5,3
312,2022-02-07T05:11:00,0.1,静穏,1.7,南南東,-1.8,93.7,0,0,0.5,3
313,2022-02-07T05:12:00,0.2,静穏,1.7,南南東,-1.8,93.7,0,0,0.5,3
314,2022-02-07T05:13:00,0.3,南南東,1.7,南南東,-1.8,93.7,0,0,0.5,3
315,2022-02-07T05:14:00,0.4,南南東,1.7,南南東,-1.8,93.7,0,0,0.5,3
316,2022-02-07T05:15:00,0.5,南南東,1.7,南南東,-1.8,93.8,0,0,0.5,3
317,2022-02-07T05:16:00,0.6,南南東,1.7,南南東,-1.8,93.9,0,0,0.5,3
318,2022-02-07T05:17:00,0.7,南南東,1.7,南南東,-1.8,93.9,0,0,0.5,3
319,2022-02-07T05:18:00,0.8,南南東,1.7,南南東,-1.8,93.9,0,0,0.5,3
320,2022-02-07T05:19:00,0.9,南南東,1.7,南南東,-1.8,93.9,0,0,0.5,3
321,2022-02-07T05:20:00,1,南,1.7,南南東,-1.8,94,0,0,0.5,3
322,2022-02-07T05:21:00,1.1,南,2.4,南,-1.8,94,0,0,0.5,3
323,2022-02-07T05:22:00,1.2,南,2.4,南,-1.8,94,0,0,0.5,3
324,2022-02-07T05:23:00,1.2,南,2.4,南,-1.8,94,0,0,0.5,3
325,2022-02-07T05:24:00,1.2,南,2.4,南,-1.8,93.9,0,0,0.5,3
326,2022-02-07T05:25:00,1.3,南,2.4,南,-1.8,93.9,0,0,0.5,3
327,2022-02-07T05:26:00,1.3,南,2.4,南,-1.8,93.9,0,0,0.5,3
328,2022-02-07T05:27:00,1.2,南,2.4,南,-1.9,93.9,0,0,0.5,3
329,2022-02-07T05:28:00,1.2,南,2.4,南,-1.9,93.8,0,0,0.5,3
330,2022-02-07T05:29:00,1.1,南南東,2.4,南,-1.9,93.8,0,0,0.5,3
331,2022-02-07T05:30:00,1,南南東,2.4,南,-1.9,93.8,0,0,0.5,3
332,2022-02-07T05:31:00,0.9,南南東,2.3,南,-1.9,93.8,0,0,0.5,3
333,2022-02-07T05:32:00,0.7,南東,2.1,南南東,-1.9,93.8,0,0,0.5,3
334,2022-02-07T05:33:00,0.7,南東,2.1,南南東,-1.8,93.8,0,0,0.5,3
335,2022-02-07T05:34:00,0.6,南東,2.1,南南東,-1.8,93.9,0,0,0.5,3
336,2022-02-07T05:35:00,0.4,南東,1.3,南南東,-1.9,93.7,0,0,0.5,3
337,2022-02-07T05:36:00,0.3,南東,1.1,東北東,-1.9,93.6,0,0,0.5,3
338,2022-02-07T05:37:00,0.2,静穏,1.1,東北東,-1.9,93.5,0,0,0.5,3
339,2022-02-07T05:38:00,0.2,静穏,1.2,南南東,-2,93.4,0,0,0.5,3
340,2022-02-07T05:39:00,0.3,東南東,1.2,南南東,-2,93.4,0,0,0.5,3
341,2022-02-07T05:40:00,0.4,南東,1.2,南南東,-2,93.3,0,0,0.5,3
342,2022-02-07T05:41:00,0.3,南東,1.2,南南東,-2,93.3,0,0,0.5,3
343,2022-02-07T05:42:00,0.3,南東,1.2,南南東,-2,93.4,0,0,0.5,3
344,2022-02-07T05:43:00,0.2,静穏,1.2,南南東,-2,93.4,0,0,0.5,3
345,2022-02-07T05:44:00,0.2,静穏,1.2,南南東,-2.1,93.3,0,0,0.5,3
346,2022-02-07T05:45:00,0.2,静穏,1.2,南南東,-2.1,93.2,0,0,0.5,3
347,2022-02-07T05:46:00,0.2,静穏,1.2,南南東,-2.1,93.2,0,0,0.5,3
348,2022-02-07T05:47:00,0.2,静穏,1.2,南南東,-2.1,93.2,0,0,0.5,3
349,2022-02-07T05:48:00,0.1,静穏,1,南南東,-2,93.3,0,0,0.5,3
350,2022-02-07T05:49:00,0.1,静穏,1,南南東,-2,93.5,0,0,0.5,3
351,2022-02-07T05:50:00,0,静穏,0.3,南南東,-2,93.5,0,0,0.5,3
352,2022-02-07T05:51:00,0,静穏,0.1,南,-2,93.6,0,0,0.5,3
353,2022-02-07T05:52:00,0,静穏,0.1,南,-1.9,93.8,0,0,0.5,3
354,2022-02-07T05:53:00,0,静穏,0.1,南,-1.9,93.8,0,0,0.5,3
355,2022-02-07T05:54:00,0,静穏,0.1,南,-1.9,93.7,0,0,0.5,3
356,2022-02-07T05:55:00,0,静穏,0.1,南,-1.9,93.6,0,0,0.5,3
357,2022-02-07T05:56:00,0,静穏,0.1,南,-1.9,93.7,0,0,0.5,3
358,2022-02-07T05:57:00,0,静穏,0.1,南,-1.9,93.6,0,0,0.5,3
359,2022-02-07T05:58:00,0,静穏,0.1,南,-1.9,93.6,0,0,0.5,3
360,2022-02-07T05:59:00,0,静穏,0.1,南,-2,93.5,0,0,0.5,3
361,2022-02-07T06:00:00,0,静穏,0,東,-2.1,93.3,0,0,0.5,3
362,2022-02-07T06:01:00,0,静穏,0.1,東北東,-2.1,93.2,0,0,0.5,3
363,2022-02-07T06:02:00,0,静穏,0.1,東北東,-2.1,93.2,0,0,0.5,3
364,2022-02-07T06:03:00,0,静穏,0.1,東北東,-2.1,93.3,0,0,0.5,3
365,2022-02-07T06:04:00,0,静穏,0.1,東北東,-2,93.4,0,0,0.5,3
366,2022-02-07T06:05:00,,"",,"",,,,,,
367,2022-02-07T06:06:00,0,静穏,0.1,東北東,-2,93.7,0,0,0.5,3
368,2022-02-07T06:07:00,0,静穏,0.1,東北東,-2,93.6,0,0,0.5,3
369,2022-02-07T06:08:00,0,静穏,0.1,東北東,-2,93.6,0,0,0.5,3
370,2022-02-07T06:09:00,0,静穏,0.1,東北東,-1.9,93.7,0,0,0.5,3
371,2022-02-07T06:10:00,0,静穏,0.1,東北東,-2,93.6,0,0,0.5,3
372,2022-02-07T06:11:00,0,静穏,0.1,東南東,-2,93.5,0,0,0.5,3
373,2022-02-07T06:12:00,0,静穏,0.1,東南東,-2,93.5,0,0,0.5,3
374,2022-02-07T06:13:00,0,静穏,0.1,東南東,-1.9,93.7,0,0,0.5,3
375,2022-02-07T06:14:00,0,静穏,0.1,東南東,-1.9,93.7,0,0,0.5,3
376,2022-02-07T06:15:00,0,静穏,0.1,東南東,-2,93.6,0,0,0.5,3
377,2022-02-07T06:16:00,0,静穏,0.1,東南東,-2,93.5,0,0,0.5,3
378,2022-02-07T06:17:00,0,静穏,0.1,東南東,-2,93.5,0,0,0.5,3
379,2022-02-07T06:18:00,0,静穏,0,北東,-1.9,93.7,0,0,0.5,3
380,2022-02-07T06:19:00,0,静穏,0,北東,-1.9,93.7,0,0,0.5,3
381,2022-02-07T06:20:00,0,静穏,0,北東,-1.9,93.7,0,0,0.5,3
382,2022-02-07T06:21:00,0,静穏,0,北東,-1.9,93.8,0,0,0.5,3
383,2022-02-07T06:22:00,0,静穏,0,北東,-1.9,93.8,0,0,0.5,3
384,2022-02-07T06:23:00,0,静穏,0,北東,-1.8,94,0,0,0.5,3
385,2022-02-07T06:24:00,0,静穏,0,北東,-1.8,94,0,0,0.5,3
386,2022-02-07T06:25:00,0,静穏,0,北東,-1.9,93.8,0,0,0.5,3
387,2022-02-07T06:26:00,0,静穏,0,北東,-1.9,93.6,0,0,0.5,3
388,2022-02-07T06:27:00,0,静穏,0,北東,-1.9,93.6,0,0,0.5,3
389,2022-02-07T06:28:00,0,静穏,0,北東,-1.8,93.9,0,0,0.5,3
390,2022-02-07T06:29:00,0,静穏,0,北東,-1.8,94,0,0,0.5,3
391,2022-02-07T06:30:00,0,静穏,0,北東,-1.8,93.9,0,0,0.5,3
392,2022-02-07T06:31:00,0,静穏,0,北東,-1.9,93.7,0,0,0.5,3
393,2022-02-07T06:32:00,0,静穏,0,北東,-1.8,93.7,0,0,0.5,3
394,2022-02-07T06:33:00,0,静穏,0,北東,-1.8,94.1,0,0,0.5,3
395,2022-02-07T06:34:00,0,静穏,0,北東,-1.8,94.1,0,0,0.5,3
396,2022-02-07T06:35:00,0,静穏,0,北東,-1.8,93.9,0,0,0.5,3
397,2022-02-07T06:36:00,0,静穏,0,北東,-1.9,93.9,0,0,0.5,3
398,2022-02-07T06:37:00,0,静穏,0,北東,-1.9,93.8,0,0,0.5,3
399,2022-02-07T06:38:00,0,静穏,0,東,-1.9,93.6,0,0,0.5,3
400,2022-02-07T06:39:00,0,静穏,0,東,-1.8,93.7,0,0,0.5,3
401,2022-02-07T06:40:00,0,静穏,0,東,-1.8,94,0,0,0.5,3
402,2022-02-07T06:41:00,0,静穏,0,東,-1.8,94,0,0,0.5,3
403,2022-02-07T06:42:00,0,静穏,0,東,-1.9,93.9,0,0,0.5,3
404,2022-02-07T06:43:00,0,静穏,0,東,-1.9,93.9,0,0,0.5,3
405,2022-02-07T06:44:00,0,静穏,0,東,-1.9,93.7,0,0,0.5,3
406,2022-02-07T06:45:00,0,静穏,0,東,-2,93.6,0,0,0.5,3
407,2022-02-07T06:46:00,0,静穏,0,東,-2,93.5,0,0,0.5,3
408,2022-02-07T06:47:00,0,静穏,0,東,-2,93.6,0,0,0.5,3
409,2022-02-07T06:48:00,0,静穏,0,南東,-2,93.5,0,0,0.5,3
410,2022-02-07T06:49:00,0,静穏,0,南東,-2.1,93.5,0,0,0.5,3
411,2022-02-07T06:50:00,0,静穏,0,南東,-2.1,93.5,0,0,0.5,3
412,2022-02-07T06:51:00,0,静穏,0,南東,-2.1,93.5,0,0,0.5,3
413,2022-02-07T06:52:00,0,静穏,0,南東,-2.1,93.5,0,0,0.5,3
414,2022-02-07T06:53:00,0,静穏,0,南東,-2.2,93.6,0,0,0.5,3